Regional Weather Roundup
Issued by NWS Cleveland, OH

Home | Current Version | Previous Version | Graphics & Text | Print | Product List | Glossary On
Versions: 1 2 3 4 5 6 7 8 9 10 11 12 13 14 15 16 17 18 19 20 21 22 23 24 25 26 27 28 29 30 31 32 33 34 35 36 37 38 39 40 41 42 43 44 45 46 47 48 49 50
000
ASUS41 KCLE 021300
RWRCLE
OHIO REGIONAL WEATHER ROUNDUP
NATIONAL WEATHER SERVICE WILMINGTON, OH
900 AM EDT THU JUL 02 2015

NOTE: "FAIR" INDICATES FEW OR NO CLOUDS BELOW 12,000 FEET WITH NO
SIGNIFICANT WEATHER AND/OR OBSTRUCTIONS TO VISIBILITY.

OHZ001>008-015>018-024>027-034-035-043-044-021400-
   NORTHWEST OHIO

CITY           SKY/WX    TMP DP  RH WIND       PRES   REMARKS
DEFIANCE       CLOUDY    64  59  83 E8        29.97S
FINDLAY        PTSUNNY   65  60  84 NE14      29.95S
TOLEDO EXPRESS PTSUNNY   64  59  83 NE10      29.98R
TOLEDO EXEC    PTSUNNY   64  57  78 NE8       29.99R
LIMA           PTSUNNY   65  62  90 NE9       29.94S
$$

OHZ009>014-019>023-028>033-038-089-021400-
   NORTHEAST OHIO

CITY           SKY/WX    TMP DP  RH WIND       PRES   REMARKS
CLE-HOPKINS    CLOUDY    66  58  75 NE8       29.99R
CLE-LAKEFRONT  PTSUNNY   66  60  81 NE12      29.96R
CUY CO. ARPT   NOT AVBL
LORAIN-ELYRIA  CLOUDY    65  59  81 E6        29.98R
ASHTABULA      PTSUNNY   63  59  87 CALM      29.99R
AKRON-CANTON   PTSUNNY   65  60  84 NE6       29.96S HAZE
WOOSTER        CLOUDY    63  61  94 NE5       29.97S FOG
MANSFIELD      CLOUDY    61  61 100 NE6       29.96F FOG
YOUNGSTOWN     NOT AVBL
$$

OHZ042-051>053-060>062-070>072-077>081-021400-
  SOUTHWEST OHIO

CITY           SKY/WX    TMP DP  RH WIND       PRES   REMARKS
CINC-COVINGTON CLOUDY    70  68  93 S5        29.89S FOG
CINC-LUNKEN    CLOUDY    69  67  93 CALM      29.89S FOG
HAMILTON       CLOUDY    70  65  84 CALM      29.90S
DAYTON         NOT AVBL
WRIGHT-PAT AFB CLOUDY    66  61  84 NE6       29.92R
DAYTON GENERAL PTSUNNY   67  62  84 E6        29.90R
WILMINGTON     CLOUDY    66  63  90 E5        29.91S FOG
$$

OHZ036-037-039>041-045>050-054>059-063>069-073>076-082>088-021400-
  CENTRAL AND SOUTHEAST OHIO

CITY           SKY/WX    TMP DP  RH WIND       PRES   REMARKS
COLUMBUS       CLOUDY    67  59  75 E5        29.92S
OSU AIRPORT    CLOUDY    68  60  75 E6        29.92F
BOLTON FIELD   PTSUNNY   64  61  88 E7        29.93R
RICKENBACK AFB NOT AVBL
NEWARK         CLOUDY    65  60  84 VRB3      29.93S
MARION         CLOUDY    63  60  90 NE8       29.95S FOG
LANCASTER      CLOUDY    67  60  78 SE6       29.93F
ZANESVILLE     CLOUDY    64  60  87 N3        29.94R FOG
NEW PHILLY     CLOUDY    62  60  93 CALM      29.96S FOG
$$


USA.gov is the U.S. government's official web portal to all federal, state and local government web resources and services.